Location: Claremont
(33.9858°S, 18.4575°E)
Time: 04:46:19
(UTC+00:00)

Cosmos 1934 Rocket - Pass Details

Date: 03 March 2021
Orbit: 939 x 998 km, 83.0° (Epoch: 10 April)

Event Time Altitude Azimuth Distance (km) Brightness Sun altitude
Rises 18:46:39 0° 181° (S) 3,678 7.3 -18.2°
Reaches altitude 10° 18:49:15 10° 176° (S) 2,717 6.5 -18.7°
Maximum altitude 18:55:20 55° 99° (E) 1,141 4.0 -19.9°
Enters shadow 18:58:00 32° 37° (NE) 1,574 4.6 -20.4°
